{"data":{"norad_id":62611,"intl_designator":"2025-009C","name":"BALKAN-1","alt_names":[],"object_type":"PAYLOAD","status":"ACTIVE","operator":null,"country":"BUL","launch_date":"2025-01-14","launch_site_code":"AFWTR","launch_vehicle":null,"mission":null,"orbit_class":"UNKNOWN","rcs_meters":null,"size_class":null,"mass_kg":null,"dimensions":null,"purposes":[],"wikipedia_slug":null,"has_3d_model":false,"image_url":null,"decayed_at":null,"tle_current":{"epoch":"2026-09-22T16:16:59.543616Z","epoch_age_seconds":129979,"freshness":"FRESH","line1":"1 62611U 25009C   26265.67846694  .00004669  00000+0  18375-3 0  9994","line2":"2 62611  97.3857 343.7328 0006426   5.6612 354.4698 15.26108951 93622","mean_motion":15.26108951,"eccentricity":0.0006426,"inclination_deg":97.3857,"raan_deg":343.7328,"arg_perigee_deg":5.6612,"mean_anomaly_deg":354.4698,"bstar":0.00018375,"rev_number":9362,"period_min":94.357614445314,"perigee_km":483.04565283266,"apogee_km":491.8693148633,"semimajor_km":6865.594483848,"source":"CELESTRAK","updated_at":"2026-09-23T09:00:21.498788Z"}}}